Simultaneous Nadir Overpasses (SNOs) Predictions

Prediction of SNOs between NOAA-15 and METOP-C Satellite Orbit:

Table of predicted SNOs for the next 14.0 days since TLE Epoch: 2/12/2022
Index Date (NOAA-15) Time (NOAA-15) Lat,Lon (NOAA-15) SZA (NOAA-15 ) Date (METOP-C) Time (METOP-C) Lat,Lon (METOP-C) SZA (METOP-C ) Distance(km) Time Diff (sec)
1 02/22/2022 02:13:59 81.04,-175.37 92.81 02/22/2022 02:12:48 81.05,-175.21 92.81 2.90 71
2 02/22/2022 03:04:30 -81.04, -7.85 87.20 02/22/2022 03:03:30 -81.05, -7.81 87.20 1.75 60
3 02/22/2022 03:55:01 81.04, 159.37 92.79 02/22/2022 03:54:10 81.04, 159.29 92.76 1.31 51
4 02/22/2022 04:45:33 -81.05, -33.48 87.24 02/22/2022 04:44:52 -81.04, -33.31 87.25 3.10 41
5 02/22/2022 05:36:03 81.04, 134.11 92.76 02/22/2022 05:35:31 81.05, 134.16 92.76 1.24 32
6 02/22/2022 06:26:35 -81.05, -58.75 87.27 02/22/2022 06:26:14 -81.04, -58.81 87.29 1.97 21
7 02/22/2022 07:17:05 81.04, 108.84 92.74 02/22/2022 07:16:53 81.04, 108.66 92.72 3.18 12
8 02/22/2022 08:07:37 -81.05, -84.01 87.29 02/22/2022 08:07:35 -81.05, -83.94 87.29 1.48 2
9 02/22/2022 08:58:07 81.04, 83.58 92.71 02/22/2022 08:58:14 81.05, 83.53 92.72 1.33 7
10 02/22/2022 09:48:39 -81.05,-109.28 87.32 02/22/2022 09:48:57 -81.04,-109.44 87.34 3.13 18
11 02/22/2022 10:39:10 81.06, 57.95 92.67 02/22/2022 10:39:36 81.04, 58.03 92.67 2.04 26
12 02/22/2022 11:29:41 -81.05,-134.55 87.34 02/22/2022 11:30:18 -81.05,-134.57 87.34 0.71 37
13 02/22/2022 12:20:11 81.04, 33.06 92.66 02/22/2022 12:20:57 81.05, 32.90 92.67 3.01 46
14 02/22/2022 13:10:43 -81.05,-159.81 87.37 02/22/2022 13:11:39 -81.06,-159.70 87.34 1.97 56
15 02/22/2022 14:01:14 81.06, 7.43 92.62 02/22/2022 14:02:19 81.05, 7.40 92.63 1.43 65



Historial Predications of SNOs between NOAA-15 and METOP-C
